Airfield :
LOGIN :

Register | Disclaimer

   EN    FR    IT 

 










Legend :    VFR   Marginal VFR   IFR   Intensive IFR   Very Intensive IFR
Visi :
Ceiling :
>= 8 km
>= 3000ft
5 to 8 km
1000 to 3000 ft
1500m to 5 km
500 to 1000 ft
800 to 1500m
200 to 500 ft
< 800m
< 200 ft
Symbols :   Thunderstorms  Fog  Heavy snow  Heavy precipitations  Wind > 20 kt
SIGMETs :     Misc.  Thunderstorms  Icing  Turbulence  Mountain Waves  Volcanic Ashes







- Airport Elevation : 36 ft
- IATA code : LTQ
- Download approach charts


LFAT - Le Touquet

CURRENT METAR :
  • 200330Z AUTO 13004KT 9999 SCT028 BKN042 OVC190 03/02 Q1021

EXPIRED METARs :
  • 200300Z AUTO 13004KT 100V160 9999 BKN043 OVC210 02/02 Q1022
  • 200230Z AUTO 14004KT 110V170 CAVOK 02/02 Q1022
  • 200200Z AUTO 14003KT CAVOK 02/02 Q1022
  • 200130Z AUTO 14003KT CAVOK 03/02 Q1022
  • 200100Z AUTO 14003KT 9999 FEW029 BKN120 OVC210 02/02 Q1023

Expired Forecast.
ATIS : +33 3 21 06 62 84
No reported NOTAMs for that airfield.



MET'MAP, your aeronautical weather chart ! - Copyright ORBIFLY December 2007 - Disclaimer

ORBIFLY MET'MAP TEAM :

Programming & Development : Alexandra Zaïnal
Concept & Development : Baudouin d'Aumeries
Co-Development & Prog : Marc-Olivier Méhu
Technical & hardware support : Manuel Goepfert

Contact : metmap@orbifly.com




SOURCES & CREDITS :

   NOAA